Find Starlink 32118

NORAD ID: 60280 Int'l Des: 2024-132 Owner: SPXS Country: US Constellation: starlink operational
LEOCIRCULAR

リアルタイム位置

3D地球を読み込み中...

Starlink 32118について

説明を読み込み中...

次回通過

Passes for default location (London). Set your location on the main map for personalized predictions.

高度履歴

Loading altitude history...

軌道要素

1 60280U 24132C 26123.49558049 .00000466 00000-0 27864-4 0 9993
2 60280 53.1605 157.7031 0001307 88.7315 271.3836 15.30184162 99958
Epoch: May 3, 2026 • Age: 16 hours

現在のステータス

高度 475.2 km
速度 7.63 km/s
衛星直下点 13.79°N, 111.53°W
打ち上げ日 Jul 28, 2024
運用期間 1.7 years
タイプ internet

技術仕様

分類 Payload
質量 730.00 kg
乾燥質量 700.00 kg
総質量 730.00 kg
長さ 0.30 m
直径 4.10 m
スパン 29.00 m
形状 Box + pan
製造者 SPXS
バスタイプ Starlink V2M
フェーズステータス In Orbit
所有者/国 SPXS/US

Most Searched